User: anonymous   Login
Location: Unspecified
(0.0000°N, 0.0000°E)
Time: 23:16:21
(UTC+00:00)
Language:

TBA - TO BE ASSIGNED - Orbit

View from above orbital plane
View from above orbital plane
View from above satellite
View from above satellite

Ground track
Ground track

The orbit is defined by the following mean orbital elements,

1 68211U          26145.60842565 +.00000000 +00000-0 +78260-4 0 00002
2 68211  97.2868  21.0145 0002116  92.8309 267.3176 15.33462838    09
Epoch (UTC): 25 May 2026 14:36:07
Eccentricity: 0.0002116
inclination: 97.2868°
perigee height: 464 km
apogee height: 467 km
right ascension of ascending node: 21.0145°
argument of perigee: 92.8309°
revolutions per day: 15.33462838
mean anomaly at epoch: 267.3176°

The dashed part of the orbit path shows where the satellite is in the earth's shadow,  

DLR